Flag for Australia Weather past 2 weeks in Mildura, Victoria, Australia

Now
64 °F

Mild.


Feels Like: 64 °F
Forecast: 51 / 73 °F
Wind: 7 mph from West

Location: Mildura Airport


UV Index: 3 (Moderate)

Visibility: N/A


Pressure: 30.10 "Hg

Humidity: 36%

Dew point: 36 °F

Location of MilduraLocation

Historic Weather in Mildura

°F

Mildura temperature yesterday

Maximum temperature yesterday: 72 °F (at 1:00 PM)
Minimum temperature yesterday: 53 °F (at 11:00 PM)
Average temperature yesterday: 64 °F

Past Weeks' High & Low Weather Summary

 TemperatureHumidityPressure
High80 °F (Apr 7, 4:00 PM)98% (Apr 9, 9:00 PM)30.22 "Hg (Apr 9, 9:00 PM)
Low43 °F (Apr 19, 6:00 AM)23% (Apr 6, 4:00 PM)29.73 "Hg (Apr 10, 4:00 PM)
Average63 °F68%30.06 "Hg
* Reported Apr 4 4:00 PM — Apr 19 3:00 PM, Mildura, Weather by CustomWeather, © 2014

Note: Actual official high and low records may vary slightly from our data, if they occured in-between our weather recording intervals... More about our weather records

Advertising

Historic Weather Conditions — Data for Previous 24 hours

 ConditionsComfort  
Time TempWeatherWind HumidityBarometerVisibility
3:00 PM
Apr 19
64 °FMild.7 mph36%30.10 "HgN/A
2:00 PM63 °FMild.7 mph39%30.11 "HgN/A
1:00 PM63 °FMild.8 mph41%30.15 "HgN/A
12:00 PM60 °FPassing clouds.5 mph43%30.18 "HgN/A
11:00 AM60 °FRefreshingly cool.6 mph41%30.21 "HgN/A
10:00 AM58 °FRefreshingly cool.3 mph51%30.22 "HgN/A
9:00 AM53 °FSunny.6 mph69%30.20 "Hg25 mi
8:00 AM45 °FCool.5 mph86%30.20 "HgN/A
6:00 AM43 °FQuite cool.5 mph88%30.18 "HgN/A
5:00 AM44 °FQuite cool.6 mph84%30.17 "HgN/A
4:00 AM45 °FQuite cool.6 mph84%30.16 "HgN/A
3:00 AM46 °FCool.6 mph78%30.16 "HgN/A
2:00 AM48 °FCool.7 mph72%30.16 "HgN/A
1:00 AM49 °FCool.8 mph68%30.17 "HgN/A
12:00 AM51 °FCool.7 mph61%30.16 "HgN/A
11:00 PM
Apr 18
53 °FCool.6 mph55%30.16 "HgN/A
10:00 PM55 °FRefreshingly cool.6 mph51%30.16 "HgN/A
9:00 PM59 °FRefreshingly cool.8 mph40%30.15 "HgN/A
8:00 PM59 °FRefreshingly cool.6 mph52%30.14 "HgN/A
7:00 PM62 °FRefreshingly cool.7 mph47%30.13 "HgN/A
6:00 PM66 °FMild.8 mph44%30.10 "HgN/A
5:00 PM69 °FMild.13 mph43%30.09 "HgN/A
4:00 PM70 °FMild.13 mph48%30.07 "HgN/A
Weather by CustomWeather, © 2014

See weather overview